Clinton, OK

11:28 PM CDT on April 25, 2017 (GMT -0500)
Clinton Municipal

Weather History for KCLK - January, 2012

Change the Weather History Date:

Tuesday, January 17, 2012

  Actual Average (KCSM) Record (KCSM)
Temperature  
Mean Temperature 42 °F -  
Max Temperature 60 °F 48 °F 63 °F (2015)
Min Temperature 24 °F 27 °F 16 °F (1997)
Degree Days  
Heating Degree Days 23    
Moisture  
Dew Point 14 °F    
Average Humidity 48    
Maximum Humidity 75    
Minimum Humidity 28    
Precipitation  
Precipitation 0.00 in - - ()
Sea Level Pressure  
Sea Level Pressure 30.22 in    
Wind  
Wind Speed 17 mph (North)    
Max Wind Speed 26 mph    
Max Gust Speed 33 mph    
Visibility 10 miles    
Events      
Averages and records for this station are not official NWS values.
T = Trace of Precipitation, MM = Missing Value Source: NWS Daily Summary

Daily Weather History Graph

Daily Weather History Graph

Search for Another Location

Airport or City:

Trip Planner

Search our weather history database for the weather conditions in past years. The results will help you decide how hot, cold, wet, or windy it might be!

Date:

Astronomy

Jan. 17, 2012 Rise Set
Actual Time 7:44 AM CST 5:47 PM CST
Civil Twilight 7:16 AM CST 6:15 PM CST
Nautical Twilight 6:45 AM CST 6:46 PM CST
Astronomical Twilight 6:14 AM CST 7:17 PM CST
Moon 2:06 AM CST (1/17) 12:41 PM CST (1/17)
Length of Visible Light 10h 58m
Length of Day
10h 03m
Waning Crescent, 35% of the Moon is Illuminated
Jan 17
Waning Crescent
Jan 23
New
Jan 30
First Quarter
Feb 7
Full
Feb 14
Last Quarter

Hourly Weather History & Observations

Time (CST) Temp. Windchill Dew Point Humidity Pressure Visibility Wind Dir Wind Speed Gust Speed Precip Events Conditions
12:15 AM 60.8 °F - 32.0 °F 34% 29.79 in 10.0 mi WSW 15.0 mph 20.7 mph N/A   Clear
12:35 AM 59.0 °F - 32.0 °F 36% 29.79 in 10.0 mi WSW 15.0 mph 18.4 mph N/A   Clear
12:55 AM 57.2 °F - 32.0 °F 38% 29.80 in 10.0 mi West 13.8 mph 18.4 mph N/A   Clear
1:15 AM 44.6 °F 35.3 °F 30.2 °F 57% 29.86 in 10.0 mi North 26.5 mph 33.4 mph N/A   Clear
1:35 AM 39.2 °F 28.7 °F 28.4 °F 65% 29.89 in 10.0 mi North 23.0 mph 31.1 mph N/A   Clear
1:55 AM 35.6 °F 23.7 °F 26.6 °F 70% 29.92 in 10.0 mi North 24.2 mph 32.2 mph N/A   Clear
2:15 AM 33.8 °F 23.5 °F 26.6 °F 75% 29.97 in 10.0 mi NNW 16.1 mph 28.8 mph N/A   Clear
2:35 AM 32.0 °F 19.8 °F 23.0 °F 69% 30.00 in 10.0 mi North 20.7 mph 29.9 mph N/A   Clear
2:55 AM 32.0 °F 19.2 °F 21.2 °F 64% 30.02 in 10.0 mi NNW 23.0 mph 27.6 mph N/A   Clear
3:35 AM 32.0 °F 20.1 °F 21.2 °F 64% 30.06 in 10.0 mi NNW 19.6 mph 27.6 mph N/A   Clear
3:55 AM 30.2 °F 17.4 °F 19.4 °F 64% 30.09 in 10.0 mi NNW 20.7 mph 27.6 mph N/A   Clear
4:15 AM 30.2 °F 17.8 °F 19.4 °F 64% 30.10 in 10.0 mi NNW 19.6 mph 24.2 mph N/A   Clear
4:35 AM 30.2 °F 19.8 °F 17.6 °F 60% 30.12 in 10.0 mi NNW 13.8 mph 21.9 mph N/A   Clear
4:55 AM 28.4 °F 13.5 °F 17.6 °F 64% 30.12 in 10.0 mi North 26.5 mph 31.1 mph N/A   Clear
5:15 AM 28.4 °F 15.4 °F 15.8 °F 59% 30.15 in 10.0 mi NNW 19.6 mph 24.2 mph N/A   Clear
5:35 AM 28.4 °F 16.2 °F 15.8 °F 59% 30.16 in 10.0 mi NNW 17.3 mph 25.3 mph N/A   Clear
5:55 AM 26.6 °F 13.4 °F 15.8 °F 64% 30.17 in 10.0 mi NNW 18.4 mph 25.3 mph N/A   Clear
6:15 AM 26.6 °F 12.7 °F 14.0 °F 59% 30.19 in 10.0 mi NNW 20.7 mph 26.5 mph N/A   Clear
6:35 AM 26.6 °F 13.1 °F 14.0 °F 59% 30.20 in 10.0 mi NNW 19.6 mph 26.5 mph N/A   Clear
6:55 AM 26.6 °F 12.7 °F 14.0 °F 59% 30.21 in 10.0 mi NNW 20.7 mph 25.3 mph N/A   Clear
7:15 AM 26.6 °F 13.1 °F 14.0 °F 59% 30.22 in 10.0 mi NNW 19.6 mph 27.6 mph N/A   Clear
7:35 AM 24.8 °F 11.5 °F 14.0 °F 64% 30.24 in 10.0 mi North 17.3 mph 24.2 mph N/A   Clear
7:55 AM 24.8 °F 12.4 °F 14.0 °F 64% 30.25 in 10.0 mi North 15.0 mph 23.0 mph N/A   Clear
8:15 AM 24.8 °F 11.9 °F 12.2 °F 59% 30.28 in 10.0 mi North 16.1 mph 24.2 mph N/A   Clear
8:35 AM 24.8 °F 12.4 °F 12.2 °F 59% 30.29 in 10.0 mi North 15.0 mph 23.0 mph N/A   Clear
8:55 AM 24.8 °F 10.3 °F 12.2 °F 59% 30.30 in 10.0 mi NNW 20.7 mph 24.2 mph N/A   Clear
9:15 AM 26.6 °F 12.7 °F 12.2 °F 55% 30.30 in 10.0 mi North 20.7 mph - N/A   Clear
9:35 AM 26.6 °F 12.7 °F 12.2 °F 55% 30.31 in 10.0 mi North 20.7 mph 24.2 mph N/A   Clear
9:55 AM 28.4 °F 15.1 °F 12.2 °F 51% 30.32 in 10.0 mi North 20.7 mph 25.3 mph N/A   Clear
10:15 AM 28.4 °F 15.1 °F 12.2 °F 51% 30.32 in 10.0 mi North 20.7 mph 28.8 mph N/A   Clear
10:35 AM 30.2 °F 17.4 °F 12.2 °F 47% 30.33 in 10.0 mi North 20.7 mph 25.3 mph N/A   Clear
10:55 AM 32.0 °F 20.1 °F 12.2 °F 44% 30.33 in 10.0 mi North 19.6 mph 25.3 mph N/A   Clear
11:15 AM 32.0 °F 20.5 °F 12.2 °F 44% 30.33 in 10.0 mi North 18.4 mph 26.5 mph N/A   Clear
11:35 AM 32.0 °F 20.8 °F 12.2 °F 44% 30.33 in 10.0 mi North 17.3 mph 26.5 mph N/A   Clear
11:55 AM 33.8 °F 22.5 °F 12.2 °F 41% 30.33 in 10.0 mi North 19.6 mph 24.2 mph N/A   Clear
12:15 PM 33.8 °F 22.5 °F 12.2 °F 41% 30.33 in 10.0 mi NNE 19.6 mph 26.5 mph N/A   Clear
12:35 PM 35.6 °F 25.5 °F 10.4 °F 35% 30.32 in 10.0 mi North 17.3 mph 23.0 mph N/A   Clear
12:55 PM 35.6 °F 26.6 °F 10.4 °F 35% 30.32 in 10.0 mi NNE 13.8 mph 19.6 mph N/A   Clear
1:15 PM 37.4 °F 28.9 °F 10.4 °F 33% 30.31 in 10.0 mi NNE 13.8 mph 19.6 mph N/A   Clear
1:35 PM 37.4 °F 27.8 °F 10.4 °F 33% 30.30 in 10.0 mi North 17.3 mph 20.7 mph N/A   Clear
1:55 PM 37.4 °F 28.5 °F 10.4 °F 33% 30.30 in 10.0 mi North 15.0 mph 21.9 mph N/A   Clear
2:15 PM 37.4 °F 30.3 °F 8.6 °F 30% 30.30 in 10.0 mi North 10.4 mph 21.9 mph N/A   Clear
2:35 PM 37.4 °F 30.3 °F 8.6 °F 30% 30.30 in 10.0 mi North 10.4 mph - N/A   Clear
2:55 PM 37.4 °F 29.3 °F 8.6 °F 30% 30.30 in 10.0 mi North 12.7 mph 18.4 mph N/A   Clear
3:15 PM 37.4 °F 30.8 °F 8.6 °F 30% 30.30 in 10.0 mi North 9.2 mph 19.6 mph N/A   Clear
3:35 PM 39.2 °F 31.6 °F 8.6 °F 28% 30.31 in 10.0 mi NNE 12.7 mph - N/A   Clear
3:55 PM 37.4 °F 28.9 °F 8.6 °F 30% 30.31 in 10.0 mi North 13.8 mph 19.6 mph N/A   Clear
4:15 PM 37.4 °F 28.5 °F 8.6 °F 30% 30.31 in 10.0 mi North 15.0 mph - N/A   Clear
4:35 PM 37.4 °F 28.9 °F 8.6 °F 30% 30.31 in 10.0 mi NNE 13.8 mph - N/A   Clear
4:55 PM 37.4 °F 29.8 °F 8.6 °F 30% 30.33 in 10.0 mi NNE 11.5 mph 16.1 mph N/A   Clear
5:15 PM 35.6 °F 28.6 °F 8.6 °F 33% 30.33 in 10.0 mi North 9.2 mph - N/A   Clear
5:35 PM 35.6 °F 29.2 °F 8.6 °F 33% 30.33 in 10.0 mi North 8.1 mph - N/A   Clear
5:55 PM 33.8 °F 27.0 °F 8.6 °F 35% 30.34 in 10.0 mi NNE 8.1 mph - N/A   Clear
6:15 PM 32.0 °F 25.6 °F 10.4 °F 41% 30.35 in 10.0 mi NNE 6.9 mph - N/A   Clear
6:35 PM 30.2 °F 23.4 °F 10.4 °F 44% 30.35 in 10.0 mi NNE 6.9 mph - N/A   Clear
6:55 PM 30.2 °F 25.4 °F 10.4 °F 44% 30.36 in 10.0 mi NE 4.6 mph - N/A   Clear
7:15 PM 30.2 °F 24.3 °F 10.4 °F 44% 30.36 in 10.0 mi NE 5.8 mph - N/A   Clear
7:35 PM 28.4 °F 24.6 °F 12.2 °F 51% 30.37 in 10.0 mi NNE 3.5 mph - N/A   Clear
7:55 PM 28.4 °F 24.6 °F 10.4 °F 47% 30.37 in 10.0 mi NNE 3.5 mph - N/A   Clear
8:15 PM 28.4 °F 24.6 °F 12.2 °F 51% 30.37 in 10.0 mi NNE 3.5 mph - N/A   Clear
8:35 PM 28.4 °F 24.6 °F 12.2 °F 51% 30.37 in 10.0 mi North 3.5 mph - N/A   Clear
8:55 PM 26.6 °F - 12.2 °F 55% 30.38 in 10.0 mi Calm Calm - N/A   Clear
9:15 PM 23.0 °F 17.0 °F 12.2 °F 63% 30.37 in 10.0 mi NE 4.6 mph - N/A   Clear
9:35 PM 24.8 °F 17.9 °F 12.2 °F 59% 30.37 in 10.0 mi NE 5.8 mph - N/A   Clear
9:55 PM 24.8 °F - 12.2 °F 59% 30.37 in 10.0 mi Calm Calm - N/A   Clear
10:15 PM 23.0 °F - 12.2 °F 63% 30.36 in 10.0 mi Calm Calm - N/A   Clear
10:35 PM 24.8 °F - 12.2 °F 59% 30.36 in 10.0 mi Calm Calm - N/A   Clear
10:55 PM 23.0 °F - 12.2 °F 63% 30.36 in 10.0 mi Calm Calm - N/A   Clear
11:15 PM 23.0 °F - 12.2 °F 63% 30.35 in 10.0 mi Calm Calm - N/A   Clear
11:35 PM 21.2 °F 16.4 °F 12.2 °F 68% 30.34 in 10.0 mi North 3.5 mph - N/A   Clear
11:55 PM 21.2 °F - 12.2 °F 68% 30.35 in 10.0 mi Calm Calm - N/A   Clear